Location: Unspecified
(0.0000°N, 0.0000°E)
Time: 02:53:45
(UTC+00:00)

Vanguard 2 Rocket - Pass Details

Date: 11 December 2017
Orbit: 556 x 3326 km, 32.9° (Epoch: 20 January)

Event Time Altitude Azimuth Distance (km) Brightness Sun altitude
Rises 17:59:50 0° 262° (W) 4,080 12.2 -1.5°
Reaches altitude 10° 18:02:26 10° 271° (W) 3,414 11.2 -2.1°
Maximum altitude 18:10:43 37° 336° (NNW) 2,718 9.4 -4.0°
Drops below altitude 10° 18:24:19 10° 37° (NE) 5,538 10.4 -7.1°
Enters shadow 18:28:17 - 43° (NE) 6,492 10.7 -8.0°
Sets 18:30:02 0° 45° (NE) 6,904 - -8.4°
